Location: Unspecified
(49.9820°N, 20.4363°E)
Time: 04:39:16
(UTC+02:00)

Vanguard 3 - Pass Details

Date: 14 May 2026
Orbit: 507 x 3204 km, 33.3° (Epoch: 6 June)

Event Time Altitude Azimuth Distance (km) Brightness Sun altitude
Rises 13:37:46 0° 216° (SW) 6,653 12.3 56.3°
Reaches altitude 10° 13:42:40 10° 207° (SSW) 5,873 12.3 55.9°
Maximum altitude 13:58:09 33° 153° (SSE) 4,467 11.6 54.6°
Drops below altitude 10° 14:12:46 10° 99° (E) 5,580 11.3 53.1°
Sets 14:17:13 0° 91° (E) 6,298 11.4 52.6°
